Location: Fauquembergues
(50.6005°N, 2.0987°E)
Time: 07:43:06
(UTC+00:00)

SL-16 R/B - Pass Details

Date: 14 July 2020
Orbit: 842 x 846 km, 71.0° (Epoch: 15 August)

Event Time Altitude Azimuth Distance (km) Brightness Sun altitude
Rises 02:00:54 0° 332° (NNW) 3,418 5.8 -12.8°
Reaches altitude 10° 02:03:38 10° 342° (NNW) 2,480 5.3 -12.6°
Maximum altitude 02:08:43 32° 46° (NE) 1,409 4.2 -12.2°
Drops below altitude 10° 02:13:47 10° 109° (ESE) 2,469 4.8 -11.8°
Sets 02:16:29 0° 119° (ESE) 3,400 5.4 -11.5°
